Weather History for Cleveland Burke, OH

Change the Weather History Date:

Wednesday, September 11, 2013

  Actual Average Record
Temperature  
Mean Temperature 84 °F -  
Max Temperature 93 °F 73 °F 93 °F (2013)
Min Temperature 73 °F 59 °F 54 °F (2008)
Cooling Degree Days 19    
Growing Degree Days 34 (Base 50)    
Moisture  
Dew Point 69 °F    
Average Humidity 60    
Maximum Humidity 82    
Minimum Humidity 38    
Precipitation  
Precipitation 0.00 in - - ()
Sea Level Pressure  
Sea Level Pressure 30.01 in    
Wind  
Wind Speed 9 mph (SSW)    
Max Wind Speed 14 mph    
Max Gust Speed 23 mph    
Visibility 8 miles    
Events      
Averages and records for this station are not official NWS values.
T = Trace of Precipitation, MM = Missing Value Source: NWS Daily Summary

Daily Weather History Graph

Daily Weather History Graph

Search for Another Location

Airport:

Trip Planner

Search our weather history database for the weather conditions in past years. The results will help you decide how hot, cold, wet, or windy it might be!

Date:

Astronomy

Sep. 11, 2013 Rise Set
Actual Time 7:03 AM EDT 7:42 PM EDT
Civil Twilight 6:35 AM EDT 8:10 PM EDT
Nautical Twilight 6:02 AM EDT 8:43 PM EDT
Astronomical Twilight 5:27 AM EDT 9:17 PM EDT
Moon 1:34 PM EDT (9/11) 11:32 PM EDT (9/11)
Length of Visible Light 13h 35m
Length of Day
12h 39m
Waxing Crescent, 38% of the Moon is Illuminated
Sep 11
Waxing Crescent
Sep 12
First Quarter
Sep 19
Full
Sep 26
Last Quarter
Oct 4
New

Hourly Weather History & Observations

Time (EDT) Temp. Heat Index Dew Point Humidity Pressure Visibility Wind Dir Wind Speed Gust Speed Precip Events Conditions
12:53 AM 84.0 °F 89.6 °F 72.0 °F 67% 30.03 in 8.0 mi SSW 9.2 mph - N/A   Clear
1:53 AM 82.9 °F 87.5 °F 71.1 °F 67% 30.04 in 8.0 mi SSW 11.5 mph 18.4 mph N/A   Clear
2:53 AM 82.9 °F 87.0 °F 70.0 °F 65% 30.04 in 8.0 mi SW 13.8 mph 23.0 mph N/A   Clear
3:53 AM 82.0 °F 85.5 °F 69.1 °F 65% 30.04 in 9.0 mi SSW 11.5 mph 20.7 mph N/A   Clear
4:53 AM 81.0 °F 84.1 °F 69.1 °F 67% 30.04 in 9.0 mi SW 11.5 mph 17.3 mph N/A   Clear
5:53 AM 80.1 °F 82.9 °F 69.1 °F 69% 30.05 in 9.0 mi SW 9.2 mph - N/A   Clear
6:53 AM 79.0 °F - 69.1 °F 72% 30.06 in 8.0 mi Variable 6.9 mph - N/A   Clear
7:53 AM 79.0 °F - 68.0 °F 69% 30.07 in 6.0 mi Variable 5.8 mph - N/A   Haze
8:53 AM 81.0 °F 83.8 °F 68.0 °F 65% 30.07 in 7.0 mi South 8.1 mph - N/A   Clear
9:53 AM 82.0 °F 84.9 °F 68.0 °F 62% 30.08 in 7.0 mi Variable 5.8 mph - N/A   Partly Cloudy
10:53 AM 82.9 °F 86.5 °F 69.1 °F 63% 30.07 in 7.0 mi South 9.2 mph - N/A   Overcast
11:53 AM 87.1 °F 92.0 °F 70.0 °F 57% 30.06 in 8.0 mi South 9.2 mph - N/A   Partly Cloudy
12:53 PM 89.1 °F 94.1 °F 70.0 °F 53% 30.04 in 7.0 mi SSW 5.8 mph - N/A   Mostly Cloudy
1:53 PM 91.0 °F 95.2 °F 68.0 °F 47% 30.02 in 10.0 mi WSW 6.9 mph - N/A   Mostly Cloudy
2:53 PM 93.0 °F 96.4 °F 66.9 °F 42% 30.00 in 6.0 mi West 8.1 mph - N/A   Haze
3:53 PM 93.9 °F 97.0 °F 66.0 °F 40% 29.97 in 8.0 mi SW 11.5 mph 19.6 mph N/A   Partly Cloudy
4:53 PM 86.0 °F 90.7 °F 70.0 °F 59% 29.95 in 10.0 mi West 4.6 mph - N/A   Partly Cloudy
5:53 PM 93.0 °F 94.6 °F 64.0 °F 38% 29.93 in 8.0 mi SSW 8.1 mph - N/A   Clear
6:53 PM 90.0 °F 91.7 °F 64.9 °F 43% 29.94 in 10.0 mi SW 10.4 mph 16.1 mph N/A   Clear
7:53 PM 87.1 °F 90.6 °F 68.0 °F 53% 29.94 in 10.0 mi Variable 6.9 mph - N/A   Clear
8:53 PM 84.9 °F 88.8 °F 69.1 °F 59% 29.95 in 10.0 mi SSE 8.1 mph - N/A   Scattered Clouds
9:53 PM 84.0 °F 87.8 °F 69.1 °F 61% 29.95 in 10.0 mi SSW 8.1 mph - N/A   Scattered Clouds
10:53 PM 75.0 °F - 69.1 °F 82% 29.98 in 10.0 mi NE 3.5 mph - N/A   Mostly Cloudy
11:53 PM 73.9 °F - 68.0 °F 82% 29.96 in 10.0 mi ENE 6.9 mph - N/A   Clear